Location: Maiden
(35.5760°N, 81.2120°W)
Time: 20:59:47
(UTC-04:00)

A-11 Canister half - Pass Details

Date: 14 August 2020
Orbit: 1514 x 1686 km, 47.2° (Epoch: 26 September)

Event Time Altitude Azimuth Distance (km) Brightness Sun altitude
Rises 21:18:48 0° 291° (WNW) 4,778 13.6 -12.9°
Reaches altitude 10° 21:22:07 10° 298° (WNW) 3,818 12.6 -13.5°
Maximum altitude 21:31:19 44° 8° (N) 2,165 9.9 -15.1°
Drops below altitude 10° 21:40:48 10° 78° (ENE) 3,929 10.7 -16.7°
Enters shadow 21:41:26 - 80° (E) 4,109 10.8 -16.9°
